Year,Month,Day,Hour,Minute,Value (Times are PST for temperature in C)
2005,06,20,00,00,13.90
2005,06,20,00,01,13.90
2005,06,20,00,02,13.80
2005,06,20,00,03,13.80
2005,06,20,00,04,13.80
2005,06,20,00,05,13.80
2005,06,20,00,06,13.80
2005,06,20,00,07,13.70
2005,06,20,00,08,13.70
2005,06,20,00,09,13.70
2005,06,20,00,10,13.70
2005,06,20,00,11,13.70
2005,06,20,00,12,13.70
2005,06,20,00,13,13.70
2005,06,20,00,14,13.70
2005,06,20,00,15,13.70
2005,06,20,00,16,13.70
2005,06,20,00,17,13.70
2005,06,20,00,18,13.60
2005,06,20,00,19,13.60
2005,06,20,00,20,13.60
2005,06,20,00,21,13.60
2005,06,20,00,22,13.60
2005,06,20,00,23,13.60
2005,06,20,00,24,13.60
2005,06,20,00,25,13.60
2005,06,20,00,26,13.60
2005,06,20,00,27,13.60
2005,06,20,00,28,13.60
2005,06,20,00,29,13.50
2005,06,20,00,30,13.50
2005,06,20,00,31,13.50
2005,06,20,00,32,13.50
2005,06,20,00,33,13.50
2005,06,20,00,34,13.50
2005,06,20,00,35,13.40
2005,06,20,00,36,13.40
2005,06,20,00,37,13.40
2005,06,20,00,38,13.30
2005,06,20,00,39,13.30
2005,06,20,00,40,13.30
2005,06,20,00,41,13.30
2005,06,20,00,42,13.30
2005,06,20,00,43,13.30
2005,06,20,00,44,13.30
2005,06,20,00,45,13.30
2005,06,20,00,46,13.30
2005,06,20,00,47,13.30
2005,06,20,00,48,13.30
2005,06,20,00,49,13.30
2005,06,20,00,50,13.30
2005,06,20,00,51,13.30
2005,06,20,00,52,13.30
2005,06,20,00,53,13.30
2005,06,20,00,54,13.30
2005,06,20,00,55,13.30
2005,06,20,00,56,13.30
2005,06,20,00,57,13.30
2005,06,20,00,58,13.30
2005,06,20,00,59,13.20
2005,06,20,01,00,13.10
2005,06,20,01,01,13.00
2005,06,20,01,02,13.00
2005,06,20,01,03,12.90
2005,06,20,01,04,12.90
2005,06,20,01,05,12.90
2005,06,20,01,06,12.80
2005,06,20,01,07,12.80
2005,06,20,01,08,12.80
2005,06,20,01,09,12.80
2005,06,20,01,10,12.80
2005,06,20,01,11,12.90
2005,06,20,01,12,12.90
2005,06,20,01,13,12.90
2005,06,20,01,14,12.90
2005,06,20,01,15,12.90
2005,06,20,01,16,13.00
2005,06,20,01,17,13.00
2005,06,20,01,18,13.00
2005,06,20,01,19,13.00
2005,06,20,01,20,12.90
2005,06,20,01,21,12.90
2005,06,20,01,22,12.90
2005,06,20,01,23,12.90
2005,06,20,01,24,12.90
2005,06,20,01,25,12.80
2005,06,20,01,26,12.80
2005,06,20,01,27,12.80
2005,06,20,01,28,12.80
2005,06,20,01,29,12.80
2005,06,20,01,30,12.80
2005,06,20,01,31,12.80
2005,06,20,01,32,12.70
2005,06,20,01,33,12.70
2005,06,20,01,34,12.70
2005,06,20,01,35,12.60
2005,06,20,01,36,12.60
2005,06,20,01,37,12.50
2005,06,20,01,38,12.50
2005,06,20,01,39,12.40
2005,06,20,01,40,12.40
2005,06,20,01,41,12.30
2005,06,20,01,42,12.30
2005,06,20,01,43,12.30
2005,06,20,01,44,12.30
2005,06,20,01,45,12.30
2005,06,20,01,46,12.30
2005,06,20,01,47,12.30
2005,06,20,01,48,12.30
2005,06,20,01,49,12.30
2005,06,20,01,50,12.30
2005,06,20,01,51,12.20
2005,06,20,01,52,12.20
2005,06,20,01,53,12.20
2005,06,20,01,54,12.20
2005,06,20,01,55,12.20
2005,06,20,01,56,12.20
2005,06,20,01,57,12.20
2005,06,20,01,58,12.20
2005,06,20,01,59,12.20
2005,06,20,02,00,12.20
2005,06,20,02,01,12.20
2005,06,20,02,02,12.20
2005,06,20,02,03,12.20
2005,06,20,02,04,12.20
2005,06,20,02,05,12.20
2005,06,20,02,06,12.20
2005,06,20,02,07,12.20
2005,06,20,02,08,12.20
2005,06,20,02,09,12.20
2005,06,20,02,10,12.20
2005,06,20,02,11,12.10
2005,06,20,02,12,12.10
2005,06,20,02,13,12.10
2005,06,20,02,14,12.10
2005,06,20,02,15,12.10
2005,06,20,02,16,12.10
2005,06,20,02,17,12.10
2005,06,20,02,18,12.10
2005,06,20,02,19,12.10
2005,06,20,02,20,12.10
2005,06,20,02,21,12.10
2005,06,20,02,22,12.10
2005,06,20,02,23,12.10
2005,06,20,02,24,12.10
2005,06,20,02,25,12.10
2005,06,20,02,26,12.10
2005,06,20,02,27,12.10
2005,06,20,02,28,12.10
2005,06,20,02,29,12.00
2005,06,20,02,30,12.00
2005,06,20,02,31,12.00
2005,06,20,02,32,11.90
2005,06,20,02,33,11.90
2005,06,20,02,34,11.80
2005,06,20,02,35,11.80
2005,06,20,02,36,11.80
2005,06,20,02,37,11.80
2005,06,20,02,38,11.80
2005,06,20,02,39,11.70
2005,06,20,02,40,11.70
2005,06,20,02,41,11.70
2005,06,20,02,42,11.70
2005,06,20,02,43,11.70
2005,06,20,02,44,11.60
2005,06,20,02,45,11.60
2005,06,20,02,46,11.60
2005,06,20,02,47,11.60
2005,06,20,02,48,11.60
2005,06,20,02,49,11.60
2005,06,20,02,50,11.60
2005,06,20,02,51,11.60
2005,06,20,02,52,11.60
2005,06,20,02,53,11.60
2005,06,20,02,54,11.60
2005,06,20,02,55,11.60
2005,06,20,02,56,11.60
2005,06,20,02,57,11.60
2005,06,20,02,58,11.60
2005,06,20,02,59,11.60
2005,06,20,03,00,11.60
2005,06,20,03,01,11.60
2005,06,20,03,02,11.60
2005,06,20,03,03,11.60
2005,06,20,03,04,11.60
2005,06,20,03,05,11.60
2005,06,20,03,06,11.60
2005,06,20,03,07,11.60
2005,06,20,03,08,11.60
2005,06,20,03,09,11.40
2005,06,20,03,10,11.40
2005,06,20,03,11,11.40
2005,06,20,03,12,11.40
2005,06,20,03,13,11.40
2005,06,20,03,14,11.30
2005,06,20,03,15,11.30
2005,06,20,03,16,11.30
2005,06,20,03,17,11.30
2005,06,20,03,18,11.30
2005,06,20,03,19,11.20
2005,06,20,03,20,11.20
2005,06,20,03,21,11.20
2005,06,20,03,22,11.20
2005,06,20,03,23,11.20
2005,06,20,03,24,11.20
2005,06,20,03,25,11.10
2005,06,20,03,26,11.10
2005,06,20,03,27,11.10
2005,06,20,03,28,11.10
2005,06,20,03,29,11.10
2005,06,20,03,30,11.10
2005,06,20,03,31,11.10
2005,06,20,03,32,11.10
2005,06,20,03,33,11.10
2005,06,20,03,34,11.10
2005,06,20,03,35,11.10
2005,06,20,03,36,11.10
2005,06,20,03,37,11.10
2005,06,20,03,38,11.20
2005,06,20,03,39,11.20
2005,06,20,03,40,11.20
2005,06,20,03,41,11.30
2005,06,20,03,42,11.30
2005,06,20,03,43,11.30
2005,06,20,03,44,11.30
2005,06,20,03,45,11.30
2005,06,20,03,46,11.30
2005,06,20,03,47,11.30
2005,06,20,03,48,11.30
2005,06,20,03,49,11.30
2005,06,20,03,50,11.30
2005,06,20,03,51,11.30
2005,06,20,03,52,11.30
2005,06,20,03,53,11.30
2005,06,20,03,54,11.30
2005,06,20,03,55,11.30
2005,06,20,03,56,11.30
2005,06,20,03,57,11.30
2005,06,20,03,58,11.30
2005,06,20,03,59,11.30
2005,06,20,04,00,11.30
2005,06,20,04,01,11.20
2005,06,20,04,02,11.20
2005,06,20,04,03,11.20
2005,06,20,04,04,11.20
2005,06,20,04,05,11.20
2005,06,20,04,06,11.20
2005,06,20,04,07,11.20
2005,06,20,04,08,11.10
2005,06,20,04,09,11.10
2005,06,20,04,10,11.20
2005,06,20,04,11,11.20
2005,06,20,04,12,11.20
2005,06,20,04,13,11.20
2005,06,20,04,14,11.20
2005,06,20,04,15,11.20
2005,06,20,04,16,11.20
2005,06,20,04,17,11.20
2005,06,20,04,18,11.10
2005,06,20,04,19,11.10
2005,06,20,04,20,11.10
2005,06,20,04,21,11.10
2005,06,20,04,22,11.10
2005,06,20,04,23,11.10
2005,06,20,04,24,11.00
2005,06,20,04,25,10.90
2005,06,20,04,26,10.90
2005,06,20,04,27,10.90
2005,06,20,04,28,10.90
2005,06,20,04,29,10.90
2005,06,20,04,30,10.90
2005,06,20,04,31,10.90
2005,06,20,04,32,10.80
2005,06,20,04,33,10.80
2005,06,20,04,34,10.70
2005,06,20,04,35,10.70
2005,06,20,04,36,10.70
2005,06,20,04,37,10.60
2005,06,20,04,38,10.60
2005,06,20,04,39,10.60
2005,06,20,04,40,10.60
2005,06,20,04,41,10.60
2005,06,20,04,42,10.60
2005,06,20,04,43,10.60
2005,06,20,04,44,10.60
2005,06,20,04,45,10.60
2005,06,20,04,46,10.60
2005,06,20,04,47,10.60
2005,06,20,04,48,10.60
2005,06,20,04,49,10.60
2005,06,20,04,50,10.60
2005,06,20,04,51,10.60
2005,06,20,04,52,10.60
2005,06,20,04,53,10.60
2005,06,20,04,54,10.60
2005,06,20,04,55,10.60
2005,06,20,04,56,10.60
2005,06,20,04,57,10.60
2005,06,20,04,58,10.60
2005,06,20,04,59,10.60
2005,06,20,05,00,10.60
2005,06,20,05,01,10.60
2005,06,20,05,02,10.60
2005,06,20,05,03,10.50
2005,06,20,05,04,10.40
2005,06,20,05,05,10.40
2005,06,20,05,06,10.40
2005,06,20,05,07,10.40
2005,06,20,05,08,10.40
2005,06,20,05,09,10.40
2005,06,20,05,10,10.40
2005,06,20,05,11,10.40
2005,06,20,05,12,10.60
2005,06,20,05,13,10.60
2005,06,20,05,14,10.60
2005,06,20,05,15,10.60
2005,06,20,05,16,10.50
2005,06,20,05,17,10.40
2005,06,20,05,18,10.40
2005,06,20,05,19,10.40
2005,06,20,05,20,10.40
2005,06,20,05,21,10.40
2005,06,20,05,22,10.40
2005,06,20,05,23,10.40
2005,06,20,05,24,10.40
2005,06,20,05,25,10.40
2005,06,20,05,26,10.40
2005,06,20,05,27,10.40
2005,06,20,05,28,10.40
2005,06,20,05,29,10.40
2005,06,20,05,30,10.40
2005,06,20,05,31,10.40
2005,06,20,05,32,10.30
2005,06,20,05,33,10.30
2005,06,20,05,34,10.30
2005,06,20,05,35,10.30
2005,06,20,05,36,10.30
2005,06,20,05,37,10.20
2005,06,20,05,38,10.20
2005,06,20,05,39,10.20
2005,06,20,05,40,10.10
2005,06,20,05,41,10.10
2005,06,20,05,42,10.10
2005,06,20,05,43,10.10
2005,06,20,05,44,10.10
2005,06,20,05,45,10.10
2005,06,20,05,46,10.10
2005,06,20,05,47,10.10
2005,06,20,05,48,10.10
2005,06,20,05,49,10.10
2005,06,20,05,50,10.20
2005,06,20,05,51,10.20
2005,06,20,05,52,10.30
2005,06,20,05,53,10.30
2005,06,20,05,54,10.40
2005,06,20,05,55,10.40
2005,06,20,05,56,10.40
2005,06,20,05,57,10.40
2005,06,20,05,58,10.50
2005,06,20,05,59,10.60
2005,06,20,06,00,10.60
2005,06,20,06,01,10.60
2005,06,20,06,02,10.60
2005,06,20,06,03,10.60
2005,06,20,06,04,10.70
2005,06,20,06,05,10.70
2005,06,20,06,06,10.80
2005,06,20,06,07,10.90
2005,06,20,06,08,10.90
2005,06,20,06,09,11.00
2005,06,20,06,10,11.10
2005,06,20,06,11,11.10
2005,06,20,06,12,11.20
2005,06,20,06,13,11.30
2005,06,20,06,14,11.40
2005,06,20,06,15,11.40
2005,06,20,06,16,11.60
2005,06,20,06,17,11.60
2005,06,20,06,18,11.70
2005,06,20,06,19,11.80
2005,06,20,06,20,11.90
2005,06,20,06,21,12.00
2005,06,20,06,22,12.10
2005,06,20,06,23,12.10
2005,06,20,06,24,12.20
2005,06,20,06,25,12.30
2005,06,20,06,26,12.30
2005,06,20,06,27,12.30
2005,06,20,06,28,12.30
2005,06,20,06,29,12.30
2005,06,20,06,30,12.40
2005,06,20,06,31,12.40
2005,06,20,06,32,12.50
2005,06,20,06,33,12.60
2005,06,20,06,34,12.70
2005,06,20,06,35,12.70
2005,06,20,06,36,12.80
2005,06,20,06,37,12.80
2005,06,20,06,38,12.90
2005,06,20,06,39,13.00
2005,06,20,06,40,13.10
2005,06,20,06,41,13.20
2005,06,20,06,42,13.30
2005,06,20,06,43,13.30
2005,06,20,06,44,13.40
2005,06,20,06,45,13.50
2005,06,20,06,46,13.60
2005,06,20,06,47,13.70
2005,06,20,06,48,13.70
2005,06,20,06,49,13.70
2005,06,20,06,50,13.70
2005,06,20,06,51,13.70
2005,06,20,06,52,13.80
2005,06,20,06,53,13.80
2005,06,20,06,54,13.80
2005,06,20,06,55,13.90
2005,06,20,06,56,13.90
2005,06,20,06,57,13.90
2005,06,20,06,58,13.90
2005,06,20,06,59,13.90
2005,06,20,07,00,14.00
2005,06,20,07,01,14.00
2005,06,20,07,02,14.10
2005,06,20,07,03,14.10
2005,06,20,07,04,14.20
2005,06,20,07,05,14.20
2005,06,20,07,06,14.20
2005,06,20,07,07,14.30
2005,06,20,07,08,14.40
2005,06,20,07,09,14.40
2005,06,20,07,10,14.50
2005,06,20,07,11,14.60
2005,06,20,07,12,14.60
2005,06,20,07,13,14.70
2005,06,20,07,14,14.80
2005,06,20,07,15,14.80
2005,06,20,07,16,14.90
2005,06,20,07,17,14.90
2005,06,20,07,18,15.00
2005,06,20,07,19,15.10
2005,06,20,07,20,15.20
2005,06,20,07,21,15.30
2005,06,20,07,22,15.40
2005,06,20,07,23,15.50
2005,06,20,07,24,15.60
2005,06,20,07,25,15.70
2005,06,20,07,26,15.80
2005,06,20,07,27,16.00
2005,06,20,07,28,16.10
2005,06,20,07,29,16.20
2005,06,20,07,30,16.30
2005,06,20,07,31,16.40
2005,06,20,07,32,16.50
2005,06,20,07,33,16.60
2005,06,20,07,34,16.60
2005,06,20,07,35,16.70
2005,06,20,07,36,16.70
2005,06,20,07,37,16.70
2005,06,20,07,38,16.80
2005,06,20,07,39,16.90
2005,06,20,07,40,16.90
2005,06,20,07,41,17.00
2005,06,20,07,42,17.00
2005,06,20,07,43,17.00
2005,06,20,07,44,17.10
2005,06,20,07,45,17.10
2005,06,20,07,46,17.20
2005,06,20,07,47,17.30
2005,06,20,07,48,17.30
2005,06,20,07,49,17.30
2005,06,20,07,50,17.40
2005,06,20,07,51,17.40
2005,06,20,07,52,17.50
2005,06,20,07,53,17.60
2005,06,20,07,54,17.60
2005,06,20,07,55,17.70
2005,06,20,07,56,17.70
2005,06,20,07,57,17.70
2005,06,20,07,58,17.70
2005,06,20,07,59,17.70
2005,06,20,08,00,17.70
2005,06,20,08,01,17.80
2005,06,20,08,02,17.80
2005,06,20,08,03,17.80
2005,06,20,08,04,17.80
2005,06,20,08,05,17.90
2005,06,20,08,06,17.90
2005,06,20,08,07,17.90
2005,06,20,08,08,17.90
2005,06,20,08,09,17.90
2005,06,20,08,10,17.90
2005,06,20,08,11,17.90
2005,06,20,08,12,17.90
2005,06,20,08,13,17.90
2005,06,20,08,14,17.90
2005,06,20,08,15,17.90
2005,06,20,08,16,17.90
2005,06,20,08,17,17.90
2005,06,20,08,18,17.90
2005,06,20,08,19,17.90
2005,06,20,08,20,18.10
2005,06,20,08,21,18.10
2005,06,20,08,22,18.10
2005,06,20,08,23,18.10
2005,06,20,08,24,18.20
2005,06,20,08,25,18.20
2005,06,20,08,26,18.20
2005,06,20,08,27,18.20
2005,06,20,08,28,18.30
2005,06,20,08,29,18.40
2005,06,20,08,30,18.40
2005,06,20,08,31,18.40
2005,06,20,08,32,18.50
2005,06,20,08,33,18.50
2005,06,20,08,34,18.60
2005,06,20,08,35,18.60
2005,06,20,08,36,18.70
2005,06,20,08,37,18.60
2005,06,20,08,38,18.50
2005,06,20,08,39,18.50
2005,06,20,08,40,18.50
2005,06,20,08,41,18.50
2005,06,20,08,42,18.50
2005,06,20,08,43,18.50
2005,06,20,08,44,18.60
2005,06,20,08,45,18.60
2005,06,20,08,46,18.70
2005,06,20,08,47,18.70
2005,06,20,08,48,18.80
2005,06,20,08,49,18.80
2005,06,20,08,50,18.90
2005,06,20,08,51,18.90
2005,06,20,08,52,18.80
2005,06,20,08,53,18.80
2005,06,20,08,54,18.70
2005,06,20,08,55,18.70
2005,06,20,08,56,18.80
2005,06,20,08,57,18.80
2005,06,20,08,58,18.90
2005,06,20,08,59,18.90
2005,06,20,09,00,19.00
2005,06,20,09,01,19.10
2005,06,20,09,02,19.10
2005,06,20,09,03,19.10
2005,06,20,09,04,19.10
2005,06,20,09,05,19.10
2005,06,20,09,06,19.10
2005,06,20,09,07,19.10
2005,06,20,09,08,19.10
2005,06,20,09,09,19.10
2005,06,20,09,10,19.20
2005,06,20,09,11,19.20
2005,06,20,09,12,19.20
2005,06,20,09,13,19.20
2005,06,20,09,14,19.20
2005,06,20,09,15,19.20
2005,06,20,09,16,19.20
2005,06,20,09,17,19.20
2005,06,20,09,18,19.20
2005,06,20,09,19,19.10
2005,06,20,09,20,19.10
2005,06,20,09,21,19.20
2005,06,20,09,22,19.30
2005,06,20,09,23,19.40
2005,06,20,09,24,19.50
2005,06,20,09,25,19.50
2005,06,20,09,26,19.40
2005,06,20,09,27,19.30
2005,06,20,09,28,19.40
2005,06,20,09,29,19.50
2005,06,20,09,30,19.50
2005,06,20,09,31,19.60
2005,06,20,09,32,19.80
2005,06,20,09,33,19.90
2005,06,20,09,34,20.00
2005,06,20,09,35,20.20
2005,06,20,09,36,20.30
2005,06,20,09,37,20.40
2005,06,20,09,38,20.50
2005,06,20,09,39,20.50
2005,06,20,09,40,20.50
2005,06,20,09,41,20.50
2005,06,20,09,42,20.60
2005,06,20,09,43,20.70
2005,06,20,09,44,20.80
2005,06,20,09,45,20.80
2005,06,20,09,46,20.90
2005,06,20,09,47,20.90
2005,06,20,09,48,20.80
2005,06,20,09,49,20.80
2005,06,20,09,50,20.70
2005,06,20,09,51,20.60
2005,06,20,09,52,20.60
2005,06,20,09,53,20.70
2005,06,20,09,54,20.70
2005,06,20,09,55,20.60
2005,06,20,09,56,20.50
2005,06,20,09,57,20.40
2005,06,20,09,58,20.30
2005,06,20,09,59,20.40
2005,06,20,10,00,20.40
2005,06,20,10,01,20.30
2005,06,20,10,02,20.40
2005,06,20,10,03,20.50
2005,06,20,10,04,20.60
2005,06,20,10,05,20.70
2005,06,20,10,06,20.80
2005,06,20,10,07,20.80
2005,06,20,10,08,20.80
2005,06,20,10,09,20.80
2005,06,20,10,10,20.90
2005,06,20,10,11,21.00
2005,06,20,10,12,21.10
2005,06,20,10,13,21.20
2005,06,20,10,14,21.30
2005,06,20,10,15,21.30
2005,06,20,10,16,21.30
2005,06,20,10,17,21.30
2005,06,20,10,18,21.40
2005,06,20,10,19,21.30
2005,06,20,10,20,21.30
2005,06,20,10,21,21.10
2005,06,20,10,22,21.10
2005,06,20,10,23,21.10
2005,06,20,10,24,21.10
2005,06,20,10,25,21.20
2005,06,20,10,26,21.20
2005,06,20,10,27,21.30
2005,06,20,10,28,21.40
2005,06,20,10,29,21.50
2005,06,20,10,30,21.60
2005,06,20,10,31,21.70
2005,06,20,10,32,21.90
2005,06,20,10,33,21.90
2005,06,20,10,34,21.90
2005,06,20,10,35,21.90
2005,06,20,10,36,21.90
2005,06,20,10,37,21.80
2005,06,20,10,38,21.70
2005,06,20,10,39,21.70
2005,06,20,10,40,21.80
2005,06,20,10,41,21.80
2005,06,20,10,42,21.80
2005,06,20,10,43,21.90
2005,06,20,10,44,21.90
2005,06,20,10,45,21.90
2005,06,20,10,46,21.80
2005,06,20,10,47,21.70
2005,06,20,10,48,21.70
2005,06,20,10,49,21.70
2005,06,20,10,50,21.70
2005,06,20,10,51,21.60
2005,06,20,10,52,21.60
2005,06,20,10,53,21.50
2005,06,20,10,54,21.40
2005,06,20,10,55,21.30
2005,06,20,10,56,21.30
2005,06,20,10,57,21.30
2005,06,20,10,58,21.30
2005,06,20,10,59,21.30
2005,06,20,11,00,21.40
2005,06,20,11,01,21.60
2005,06,20,11,02,21.60
2005,06,20,11,03,21.60
2005,06,20,11,04,21.70
2005,06,20,11,05,21.90
2005,06,20,11,06,22.00
2005,06,20,11,07,22.10
2005,06,20,11,08,22.10
2005,06,20,11,09,22.10
2005,06,20,11,10,22.10
2005,06,20,11,11,22.10
2005,06,20,11,12,22.10
2005,06,20,11,13,22.10
2005,06,20,11,14,22.10
2005,06,20,11,15,22.10
2005,06,20,11,16,22.10
2005,06,20,11,17,22.00
2005,06,20,11,18,21.90
2005,06,20,11,19,21.70
2005,06,20,11,20,21.60
2005,06,20,11,21,21.60
2005,06,20,11,22,21.60
2005,06,20,11,23,21.60
2005,06,20,11,24,21.70
2005,06,20,11,25,21.90
2005,06,20,11,26,22.00
2005,06,20,11,27,22.10
2005,06,20,11,28,22.20
2005,06,20,11,29,22.20
2005,06,20,11,30,22.20
2005,06,20,11,31,22.30
2005,06,20,11,32,22.40
2005,06,20,11,33,22.50
2005,06,20,11,34,22.40
2005,06,20,11,35,22.50
2005,06,20,11,36,22.50
2005,06,20,11,37,22.40
2005,06,20,11,38,22.30
2005,06,20,11,39,22.30
2005,06,20,11,40,22.30
2005,06,20,11,41,22.20
2005,06,20,11,42,22.20
2005,06,20,11,43,22.20
2005,06,20,11,44,22.20
2005,06,20,11,45,22.10
2005,06,20,11,46,22.10
2005,06,20,11,47,22.10
2005,06,20,11,48,22.00
2005,06,20,11,49,21.90
2005,06,20,11,50,21.90
2005,06,20,11,51,21.90
2005,06,20,11,52,22.00
2005,06,20,11,53,22.10
2005,06,20,11,54,22.30
2005,06,20,11,55,22.30
2005,06,20,11,56,22.20
2005,06,20,11,57,22.10
2005,06,20,11,58,22.00
2005,06,20,11,59,22.00
2005,06,20,12,00,21.80
2005,06,20,12,01,21.70
2005,06,20,12,02,21.60
2005,06,20,12,03,21.60
2005,06,20,12,04,21.40
2005,06,20,12,05,21.40
2005,06,20,12,06,21.50
2005,06,20,12,07,21.60
2005,06,20,12,08,21.70
2005,06,20,12,09,21.70
2005,06,20,12,10,21.80
2005,06,20,12,11,21.90
2005,06,20,12,12,21.90
2005,06,20,12,13,22.00
2005,06,20,12,14,22.00
2005,06,20,12,15,22.10
2005,06,20,12,16,22.20
2005,06,20,12,17,22.30
2005,06,20,12,18,22.20
2005,06,20,12,19,22.10
2005,06,20,12,20,22.00
2005,06,20,12,21,21.90
2005,06,20,12,22,22.00
2005,06,20,12,23,22.10
2005,06,20,12,24,22.20
2005,06,20,12,25,22.30
2005,06,20,12,26,22.30
2005,06,20,12,27,22.30
2005,06,20,12,28,22.30
2005,06,20,12,29,22.40
2005,06,20,12,30,22.60
2005,06,20,12,31,22.70
2005,06,20,12,32,22.70
2005,06,20,12,33,22.60
2005,06,20,12,34,22.70
2005,06,20,12,35,22.80
2005,06,20,12,36,22.80
2005,06,20,12,37,22.90
2005,06,20,12,38,22.90
2005,06,20,12,39,22.90
2005,06,20,12,40,22.90
2005,06,20,12,41,22.80
2005,06,20,12,42,22.90
2005,06,20,12,43,23.00
2005,06,20,12,44,23.00
2005,06,20,12,45,22.90
2005,06,20,12,46,22.90
2005,06,20,12,47,22.80
2005,06,20,12,48,22.70
2005,06,20,12,49,22.70
2005,06,20,12,50,22.60
2005,06,20,12,51,22.80
2005,06,20,12,52,22.80
2005,06,20,12,53,22.90
2005,06,20,12,54,22.90
2005,06,20,12,55,22.90
2005,06,20,12,56,23.00
2005,06,20,12,57,23.10
2005,06,20,12,58,23.00
2005,06,20,12,59,22.90
2005,06,20,13,00,22.90
2005,06,20,13,01,22.90
2005,06,20,13,02,22.90
2005,06,20,13,03,22.90
2005,06,20,13,04,23.10
2005,06,20,13,05,23.10
2005,06,20,13,06,23.10
2005,06,20,13,07,23.10
2005,06,20,13,08,23.10
2005,06,20,13,09,23.20
2005,06,20,13,10,23.20
2005,06,20,13,11,23.30
2005,06,20,13,12,23.30
2005,06,20,13,13,23.20
2005,06,20,13,14,23.20
2005,06,20,13,15,23.20
2005,06,20,13,16,23.20
2005,06,20,13,17,23.20
2005,06,20,13,18,23.20
2005,06,20,13,19,23.20
2005,06,20,13,20,23.10
2005,06,20,13,21,22.90
2005,06,20,13,22,22.70
2005,06,20,13,23,22.70
2005,06,20,13,24,22.70
2005,06,20,13,25,22.80
2005,06,20,13,26,22.90
2005,06,20,13,27,22.90
2005,06,20,13,28,22.90
2005,06,20,13,29,22.90
2005,06,20,13,30,23.00
2005,06,20,13,31,23.10
2005,06,20,13,32,23.20
2005,06,20,13,33,23.20
2005,06,20,13,34,23.30
2005,06,20,13,35,23.30
2005,06,20,13,36,23.40
2005,06,20,13,37,23.50
2005,06,20,13,38,23.60
2005,06,20,13,39,23.70
2005,06,20,13,40,23.70
2005,06,20,13,41,23.60
2005,06,20,13,42,23.60
2005,06,20,13,43,23.40
2005,06,20,13,44,23.50
2005,06,20,13,45,23.60
2005,06,20,13,46,23.70
2005,06,20,13,47,23.70
2005,06,20,13,48,23.60
2005,06,20,13,49,23.50
2005,06,20,13,50,23.40
2005,06,20,13,51,23.50
2005,06,20,13,52,23.60
2005,06,20,13,53,23.70
2005,06,20,13,54,23.70
2005,06,20,13,55,23.70
2005,06,20,13,56,23.70
2005,06,20,13,57,23.70
2005,06,20,13,58,23.80
2005,06,20,13,59,23.90
2005,06,20,14,00,23.90
2005,06,20,14,01,23.90
2005,06,20,14,02,23.90
2005,06,20,14,03,23.90
2005,06,20,14,04,23.80
2005,06,20,14,05,24.00
2005,06,20,14,06,24.10
2005,06,20,14,07,24.20
2005,06,20,14,08,24.30
2005,06,20,14,09,24.40
2005,06,20,14,10,24.40
2005,06,20,14,11,24.40
2005,06,20,14,12,24.40
2005,06,20,14,13,24.40
2005,06,20,14,14,24.40
2005,06,20,14,15,24.30
2005,06,20,14,16,24.30
2005,06,20,14,17,24.20
2005,06,20,14,18,24.20
2005,06,20,14,19,24.40
2005,06,20,14,20,24.50
2005,06,20,14,21,24.60
2005,06,20,14,22,24.70
2005,06,20,14,23,24.80
2005,06,20,14,24,24.80
2005,06,20,14,25,24.80
2005,06,20,14,26,24.80
2005,06,20,14,27,24.80
2005,06,20,14,28,24.90
2005,06,20,14,29,24.80
2005,06,20,14,30,24.80
2005,06,20,14,31,24.70
2005,06,20,14,32,24.70
2005,06,20,14,33,24.70
2005,06,20,14,34,24.80
2005,06,20,14,35,24.80
2005,06,20,14,36,24.80
2005,06,20,14,37,24.90
2005,06,20,14,38,24.90
2005,06,20,14,39,25.00
2005,06,20,14,40,25.00
2005,06,20,14,41,25.00
2005,06,20,14,42,25.00
2005,06,20,14,43,25.00
2005,06,20,14,44,25.10
2005,06,20,14,45,25.00
2005,06,20,14,46,25.00
2005,06,20,14,47,25.00
2005,06,20,14,48,25.00
2005,06,20,14,49,24.90
2005,06,20,14,50,24.80
2005,06,20,14,51,24.80
2005,06,20,14,52,24.70
2005,06,20,14,53,24.70
2005,06,20,14,54,24.80
2005,06,20,14,55,24.80
2005,06,20,14,56,24.90
2005,06,20,14,57,25.00
2005,06,20,14,58,24.90
2005,06,20,14,59,24.90
2005,06,20,15,00,24.80
2005,06,20,15,01,24.60
2005,06,20,15,02,24.50
2005,06,20,15,03,24.50
2005,06,20,15,04,24.70
2005,06,20,15,05,24.80
2005,06,20,15,06,24.80
2005,06,20,15,07,24.80
2005,06,20,15,08,24.80
2005,06,20,15,09,24.90
2005,06,20,15,10,24.90
2005,06,20,15,11,24.90
2005,06,20,15,12,24.90
2005,06,20,15,13,24.90
2005,06,20,15,14,24.90
2005,06,20,15,15,24.90
2005,06,20,15,16,24.80
2005,06,20,15,17,24.70
2005,06,20,15,18,24.70
2005,06,20,15,19,24.70
2005,06,20,15,20,24.90
2005,06,20,15,21,24.90
2005,06,20,15,22,24.90
2005,06,20,15,23,25.00
2005,06,20,15,24,24.90
2005,06,20,15,25,24.90
2005,06,20,15,26,25.10
2005,06,20,15,27,25.20
2005,06,20,15,28,25.20
2005,06,20,15,29,25.20
2005,06,20,15,30,25.30
2005,06,20,15,31,25.20
2005,06,20,15,32,25.20
2005,06,20,15,33,25.30
2005,06,20,15,34,25.30
2005,06,20,15,35,25.30
2005,06,20,15,36,25.20
2005,06,20,15,37,25.20
2005,06,20,15,38,25.30
2005,06,20,15,39,25.30
2005,06,20,15,40,25.30
2005,06,20,15,41,25.40
2005,06,20,15,42,25.40
2005,06,20,15,43,25.40
2005,06,20,15,44,25.20
2005,06,20,15,45,25.20
2005,06,20,15,46,25.20
2005,06,20,15,47,25.30
2005,06,20,15,48,25.30
2005,06,20,15,49,25.30
2005,06,20,15,50,25.30
2005,06,20,15,51,25.20
2005,06,20,15,52,25.20
2005,06,20,15,53,25.20
2005,06,20,15,54,25.30
2005,06,20,15,55,25.40
2005,06,20,15,56,25.40
2005,06,20,15,57,25.40
2005,06,20,15,58,25.50
2005,06,20,15,59,25.60
2005,06,20,16,00,25.60
2005,06,20,16,01,25.50
2005,06,20,16,02,25.50
2005,06,20,16,03,25.50
2005,06,20,16,04,25.40
2005,06,20,16,05,25.30
2005,06,20,16,06,25.30
2005,06,20,16,07,25.40
2005,06,20,16,08,25.40
2005,06,20,16,09,25.50
2005,06,20,16,10,25.50
2005,06,20,16,11,25.60
2005,06,20,16,12,25.70
2005,06,20,16,13,25.80
2005,06,20,16,14,25.80
2005,06,20,16,15,25.80
2005,06,20,16,16,25.80
2005,06,20,16,17,25.80
2005,06,20,16,18,25.80
2005,06,20,16,19,25.80
2005,06,20,16,20,25.90
2005,06,20,16,21,25.90
2005,06,20,16,22,25.90
2005,06,20,16,23,25.90
2005,06,20,16,24,26.00
2005,06,20,16,25,25.90
2005,06,20,16,26,25.90
2005,06,20,16,27,25.90
2005,06,20,16,28,25.80
2005,06,20,16,29,25.80
2005,06,20,16,30,25.90
2005,06,20,16,31,25.90
2005,06,20,16,32,25.90
2005,06,20,16,33,25.90
2005,06,20,16,34,25.90
2005,06,20,16,35,25.90
2005,06,20,16,36,25.90
2005,06,20,16,37,25.90
2005,06,20,16,38,25.80
2005,06,20,16,39,25.70
2005,06,20,16,40,25.60
2005,06,20,16,41,25.50
2005,06,20,16,42,25.50
2005,06,20,16,43,25.60
2005,06,20,16,44,25.50
2005,06,20,16,45,25.50
2005,06,20,16,46,25.50
2005,06,20,16,47,25.40
2005,06,20,16,48,25.40
2005,06,20,16,49,25.40
2005,06,20,16,50,25.40
2005,06,20,16,51,25.30
2005,06,20,16,52,25.30
2005,06,20,16,53,25.20
2005,06,20,16,54,25.30
2005,06,20,16,55,25.40
2005,06,20,16,56,25.40
2005,06,20,16,57,25.50
2005,06,20,16,58,25.60
2005,06,20,16,59,25.70
2005,06,20,17,00,25.70
2005,06,20,17,01,25.70
2005,06,20,17,02,25.70
2005,06,20,17,03,25.70
2005,06,20,17,04,25.70
2005,06,20,17,05,25.80
2005,06,20,17,06,25.80
2005,06,20,17,07,25.80
2005,06,20,17,08,25.80
2005,06,20,17,09,25.70
2005,06,20,17,10,25.70
2005,06,20,17,11,25.60
2005,06,20,17,12,25.50
2005,06,20,17,13,25.40
2005,06,20,17,14,25.30
2005,06,20,17,15,25.30
2005,06,20,17,16,25.30
2005,06,20,17,17,25.30
2005,06,20,17,18,25.40
2005,06,20,17,19,25.40